一网星座-0010星 (ONEWEB-0010 )

导读

ONEWEB-0010,中文名一网星座-0010星,别名ChusigSat,是英国一网卫星公司运营的OneWeb全球卫星互联网星座的首批原型星之一。该卫星由欧洲空客防务与航天公司制造,于2019年2月27日在圭亚那航天中心发射,国际标识2019-010B。 卫星重约147公斤,运行在近地点1196公里,远地点1199公里的近极LEO轨道,倾角87.9°,搭载Ku频段有效载荷,设计寿命7年,目前仍在轨运行,可提供高速互联网接入服务。

Basic Information
目录编号:
44058
目录名称:
ONEWEB-0010
国际标识:
2019-010B
轨道中心:
EARTH
卫星名称:
一网星座-0010星
卫星全名:
一网星座-0010星 (ONEWEB-0010 )
卫星状态:
在轨 (已飞行2757 天)
发射日期:
2019-02-27 UTC
国别 :
英国 (GB)
星等 :
--
This satellite is enrolled in the Space Conjunction Data Service (SCDS) and the current flight risk assessment level is: No High Risk
Orbit Information
数据来源 国际轨道数据 AOE轨道数据
星历时间 2026-09-15T16:02:16+0800
15小时前
查看轨道信息
2026-09-14T06:00:00+0800
2天前
查看轨道信息
半长轴 7575.898km 7575.86km
偏心率 0.0001928 0.0002127
轨道倾角 87.915° 87.913°
近地点辐角 69.999° 66.906°
升交点赤经 210.882° 211.160°
平近点角 290.135° 55.037°
近地点 1196.3km 1196.111km
远地点 1199.222km 1199.335km
周期 109.373分钟 109.372分钟
每日圈数 13.165932 13.166032
Detailed Information
平衡模式:
三轴稳定
覆盖范围:
全球
运营商:
一网卫星公司
运营商所在国:
英国
制造商(研发单位):
空客防务与航天公司
制造商所在国:
法国大都会
使用方式:
暂无
Satellite Introduction
OneWeb卫星网络由648颗重约125公斤的微型卫星组成,运行在1200公里的轨道上。 每颗卫星都能够提供至少每秒8千兆位的吞吐量,以使用其高吞吐量的Ku频段有效载荷为家庭和移动平台提供互联网接入。该卫星仍在工作。
2D Orbit Map
3D Orbit Map
Orbit Altitude Analysis Chart
Orbit Inclination Analysis Chart
Orbit Comprehensive Analysis Chart
View Comprehensive Chart
Miss Distance Evolution Trend with All Objects Subscribe to Flight Safety Assessment
Collision Probability Evolution Trend with All Objects Subscribe to Flight Safety Assessment